| time (UTC) | temp F | wind direction | speed knots | gust knots | rain 1hr in | rain 24hr in | rain mn in | humidity % | barometer mb |
| 20260510141002 | 66 | 259 | 0.0 | 2.6 | 0.00 | 0.00 | 0.00 | 79 | 1019.4 |
| 20260510140002 | 65 | 255 | 0.9 | 2.6 | 0.00 | 0.00 | 0.00 | 80 | 1019.5 |
| 20260510135001 | 65 | 257 | 0.9 | 2.6 | 0.00 | 0.00 | 0.00 | 85 | 1019.5 |
| 20260510134002 | 64 | 273 | 0.9 | 2.6 | 0.00 | 0.00 | 0.00 | 86 | 1019.4 |
| 20260510133002 | 64 | 279 | 0.0 | 0.9 | 0.00 | 0.00 | 0.00 | 86 | 1019.2 |
| 20260510111002 | 53 | 256 | 0.9 | 2.6 | 0.00 | 0.00 | 0.00 | 87 | 1018.0 |
| 20260510110002 | 53 | 257 | 0.0 | 1.7 | 0.00 | 0.00 | 0.00 | 86 | 1017.7 |
| 20260510105002 | 54 | 257 | 0.9 | 2.6 | 0.00 | 0.00 | 0.00 | 87 | 1017.7 |
| 20260510104002 | 54 | 259 | 1.7 | 5.2 | 0.00 | 0.00 | 0.00 | 86 | 1017.3 |
| 20260510103001 | 54 | 333 | 0.0 | 0.0 | 0.00 | 0.00 | 0.00 | 87 | 1017.2 |
| 20260510102002 | 54 | 333 | 0.0 | 0.0 | 0.00 | 0.00 | 0.00 | 87 | 1017.1 |
| 20260510060001 | 58 | 247 | 0.0 | 0.0 | 0.00 | 0.00 | 0.00 | 86 | 1016.3 |
| 20260510055002 | 58 | 247 | 0.0 | 0.0 | 0.00 | 0.00 | 0.00 | 86 | 1016.2 |
| 20260510054002 | 58 | 247 | 0.0 | 0.0 | 0.00 | 0.00 | 0.00 | 86 | 1016.4 |
| 20260510053001 | 58 | 247 | 0.0 | 0.0 | 0.00 | 0.00 | 0.00 | 86 | 1016.5 |
| 20260510052002 | 58 | 247 | 0.0 | 0.0 | 0.00 | 0.00 | 0.00 | 86 | 1016.6 |
| 20260510051002 | 58 | 247 | 0.0 | 0.0 | 0.00 | 0.00 | 0.00 | 86 | 1016.6 |
| 20260510050001 | 58 | 247 | 0.0 | 0.9 | 0.00 | 0.00 | 0.00 | 86 | 1016.7 |
| 20260510045002 | 58 | 247 | 0.0 | 0.9 | 0.00 | 0.00 | 0.00 | 86 | 1017.0 |
| 20260510044001 | 58 | 247 | 0.0 | 0.9 | 0.00 | 0.00 | 0.00 | 86 | 1016.8 |
| 20260510043002 | 58 | 247 | 0.0 | 0.9 | 0.00 | 0.00 | 0.00 | 86 | 1016.9 |
| 20260510042002 | 58 | 247 | 0.0 | 1.7 | 0.00 | 0.00 | 0.00 | 86 | 1017.0 |
| 20260510041002 | 58 | 247 | 0.9 | 1.7 | 0.00 | 0.00 | 0.00 | 86 | 1016.9 |
| 20260510035002 | 59 | 247 | 0.0 | 0.0 | 0.00 | 0.00 | 0.00 | 86 | 1016.8 |
| 20260510034001 | 59 | 247 | 0.0 | 2.6 | 0.00 | 0.00 | 0.00 | 86 | 1016.7 |
| 20260510033001 | 59 | 247 | 1.7 | 2.6 | 0.00 | 0.00 | 0.00 | 86 | 1016.8 |
| 20260510032002 | 59 | 247 | 0.9 | 2.6 | 0.00 | 0.00 | 0.00 | 86 | 1016.8 |
| 20260510031002 | 59 | 248 | 0.9 | 2.6 | 0.00 | 0.00 | 0.00 | 86 | 1016.6 |
| 20260510030002 | 60 | 248 | 0.0 | 1.7 | 0.00 | 0.00 | 0.00 | 86 | 1016.5 |
| 20260510015002 | 62 | 248 | 0.0 | 0.9 | 0.00 | 0.00 | 0.00 | 83 | 1015.5 |
| 20260510014002 | 62 | 248 | 0.0 | 0.0 | 0.00 | 0.00 | 0.00 | 83 | 1015.5 |
| 20260510013002 | 63 | 248 | 0.0 | 0.0 | 0.00 | 0.00 | 0.00 | 82 | 1015.5 |
| 20260510012002 | 63 | 248 | 0.0 | 0.0 | 0.00 | 0.00 | 0.00 | 82 | 1015.3 |
| 20260510011001 | 63 | 248 | 0.0 | 0.0 | 0.00 | 0.00 | 0.00 | 81 | 1015.3 |
| 20260510010002 | 64 | 248 | 0.0 | 0.0 | 0.00 | 0.00 | 0.00 | 79 | 1015.3 |
| 20260510005002 | 64 | 248 | 0.0 | 0.0 | 0.00 | 0.00 | 0.00 | 79 | 1015.1 |
| 20260510004001 | 64 | 248 | 0.0 | 1.7 | 0.00 | 0.00 | 0.00 | 78 | 1015.0 |
| 20260510003002 | 65 | 248 | 0.0 | 2.6 | 0.00 | 0.00 | 0.00 | 78 | 1015.0 |
| 20260510002001 | 65 | 248 | 0.9 | 2.6 | 0.00 | 0.00 | 0.00 | 77 | 1015.0 |
| 20260510001002 | 66 | 248 | 1.7 | 4.3 | 0.00 | 0.00 | 0.00 | 76 | 1014.8 |
| 20260510000002 | 66 | 247 | 2.6 | 4.3 | 0.00 | 0.00 | 0.00 | 75 | 1014.8 |
| 20260509235002 | 67 | 248 | 1.7 | 5.2 | 0.00 | 0.00 | 0.00 | 74 | 1014.8 |
| 20260509224001 | 71 | 282 | 4.3 | 7.8 | 0.00 | 0.00 | 0.00 | 69 | 1013.9 |
| 20260509223002 | 71 | 277 | 7.0 | 11.3 | 0.00 | 0.00 | 0.00 | 67 | 1014.0 |
| 20260509222002 | 71 | 271 | 5.2 | 8.7 | 0.00 | 0.00 | 0.00 | 66 | 1014.0 |
| 20260509221001 | 71 | 275 | 4.3 | 7.8 | 0.00 | 0.00 | 0.00 | 66 | 1013.8 |
| 20260509220002 | 71 | 250 | 4.3 | 8.7 | 0.00 | 0.00 | 0.00 | 65 | 1013.8 |
| 20260509215002 | 72 | 308 | 5.2 | 10.4 | 0.00 | 0.00 | 0.00 | 64 | 1013.7 |
| 20260509204002 | 71 | 247 | 2.6 | 7.0 | 0.00 | 0.00 | 0.00 | 71 | 1013.6 |
| 20260509203001 | 71 | 214 | 4.3 | 7.8 | 0.00 | 0.00 | 0.00 | 68 | 1013.6 |
| 20260509202001 | 71 | 203 | 5.2 | 8.7 | 0.00 | 0.00 | 0.00 | 68 | 1013.5 |
| 20260509201002 | 71 | 229 | 4.3 | 7.0 | 0.00 | 0.00 | 0.00 | 68 | 1013.4 |
| 20260509200002 | 72 | 214 | 3.5 | 8.7 | 0.00 | 0.00 | 0.00 | 66 | 1013.4 |
| 20260509195002 | 72 | 246 | 2.6 | 7.0 | 0.00 | 0.00 | 0.00 | 66 | 1013.6 |
| 20260509194002 | 72 | 236 | 4.3 | 8.7 | 0.00 | 0.00 | 0.00 | 64 | 1013.5 |
| 20260509193002 | 72 | 213 | 3.5 | 10.4 | 0.00 | 0.00 | 0.00 | 68 | 1013.7 |
| 20260509192002 | 71 | 199 | 5.2 | 8.7 | 0.00 | 0.00 | 0.00 | 66 | 1013.7 |
| 20260509191002 | 71 | 247 | 3.5 | 10.4 | 0.00 | 0.00 | 0.00 | 68 | 1013.6 |
| 20260509190002 | 70 | 245 | 3.5 | 10.4 | 0.00 | 0.00 | 0.00 | 69 | 1013.8 |
| 20260509185002 | 70 | 203 | 1.7 | 6.1 | 0.00 | 0.00 | 0.00 | 73 | 1013.8 |
| 20260509184002 | 70 | 179 | 4.3 | 8.7 | 0.00 | 0.00 | 0.00 | 72 | 1014.0 |
| 20260509183002 | 69 | 302 | 4.3 | 8.7 | 0.00 | 0.00 | 0.00 | 70 | 1013.9 |
| 20260509182002 | 69 | 247 | 4.3 | 7.0 | 0.00 | 0.00 | 0.00 | 69 | 1014.1 |
| 20260509181002 | 68 | 201 | 2.6 | 6.1 | 0.00 | 0.00 | 0.00 | 75 | 1014.1 |
| 20260509180002 | 67 | 214 | 4.3 | 8.7 | 0.00 | 0.00 | 0.00 | 73 | 1014.2 |
| 20260509175002 | 67 | 258 | 2.6 | 7.8 | 0.00 | 0.00 | 0.00 | 74 | 1014.0 |
| 20260509174002 | 67 | 210 | 2.6 | 8.7 | 0.00 | 0.00 | 0.00 | 74 | 1014.0 |
| 20260509173002 | 66 | 221 | 2.6 | 7.8 | 0.00 | 0.00 | 0.00 | 76 | 1014.3 |
| 20260509172001 | 66 | 270 | 2.6 | 11.3 | 0.00 | 0.00 | 0.00 | 76 | 1014.4 |
| 20260509171001 | 66 | 218 | 4.3 | 10.4 | 0.00 | 0.00 | 0.00 | 78 | 1014.4 |
| 20260509170002 | 66 | 241 | 7.0 | 13.0 | 0.00 | 0.00 | 0.00 | 78 | 1014.8 |
| 20260509165002 | 65 | 215 | 6.1 | 10.4 | 0.00 | 0.00 | 0.00 | 80 | 1015.1 |
| 20260509164002 | 64 | 300 | 5.2 | 10.4 | 0.00 | 0.00 | 0.00 | 79 | 1015.2 |
| 20260509163001 | 64 | 263 | 5.2 | 10.4 | 0.00 | 0.00 | 0.00 | 79 | 1015.1 |
| 20260509162001 | 64 | 303 | 6.1 | 8.7 | 0.00 | 0.00 | 0.00 | 80 | 1015.0 |
| 20260509161002 | 64 | 211 | 5.2 | 10.4 | 0.00 | 0.00 | 0.00 | 81 | 1015.1 |
| 20260509160002 | 64 | 212 | 4.3 | 10.4 | 0.00 | 0.00 | 0.00 | 79 | 1015.1 |
| 20260509155002 | 64 | 210 | 7.8 | 12.2 | 0.00 | 0.00 | 0.00 | 80 | 1015.2 |
| 20260509154002 | 63 | 239 | 4.3 | 7.8 | 0.00 | 0.00 | 0.00 | 83 | 1015.0 |
| 20260509153002 | 63 | 209 | 5.2 | 8.7 | 0.00 | 0.00 | 0.00 | 85 | 1015.2 |
| 20260509152001 | 62 | 232 | 1.7 | 6.1 | 0.00 | 0.00 | 0.00 | 87 | 1015.3 |
| 20260509151002 | 61 | 211 | 2.6 | 6.1 | 0.00 | 0.00 | 0.00 | 87 | 1015.4 |
| 20260509150002 | 61 | 200 | 3.5 | 6.1 | 0.00 | 0.00 | 0.00 | 86 | 1015.5 |
| 20260509145002 | 60 | 220 | 1.7 | 4.3 | 0.00 | 0.00 | 0.00 | 86 | 1015.5 |
| 20260509144002 | 60 | 219 | 1.7 | 4.3 | 0.00 | 0.00 | 0.00 | 86 | 1015.3 |